^^
Station Historical Data
Daily Summary for March 13, 2017 Units:  English    Metric   Both
« Previous Day
Next Day »
Daily Weekly Monthly Yearly Custom
  High: Low: Average:
Temperature: 35.8 °F 15.2 °F 25.7 °F
Dew Point: 23.8 °F 5.3 °F 10.5 °F
Humidity: 88 % 34 % 54 %
Wind Speed: 5.9 mph 0.0 mph 0.6 mph
Wind Gust: 10.4 mph - -
Wind:- - SSE
Pressure: 30.57 in 30.24 in -
Precipitation: 0.01 in    
Historical Graphs
 
 
Tabular Data for March 13, 2017
Time Temperature Dew Point Pressure Wind Wind Speed Wind Gust Humidity Rainfall Rate (Hourly) solar Conditions
00:03 22.1 °F 5.8 °F 30.47 in NW 0.4 mph 5.8 mph 49 % 0.00 in 0.0 W/m2 RA
00:08 22.2 °F 5.9 °F 30.47 in NW 0.5 mph 4.6 mph 49 % 0.00 in 0.0 W/m2 RA
00:13 22.0 °F 6.2 °F 30.47 in NW 2.5 mph 3.0 mph 50 % 0.00 in 0.0 W/m2 CLR
00:18 21.8 °F 6.0 °F 30.47 in NW 2.7 mph 3.5 mph 50 % 0.00 in 0.0 W/m2 CLR
00:23 21.6 °F 5.8 °F 30.47 in Calm     50 % 0.00 in 0.0 W/m2 CLR
00:28 21.4 °F 6.0 °F 30.47 in Calm     51 % 0.00 in 0.0 W/m2 CLR
00:33 21.3 °F 6.4 °F 30.48 in Calm     52 % 0.00 in 0.0 W/m2 CLR
00:38 21.2 °F 6.3 °F 30.48 in NW 0.6 mph 3.5 mph 52 % 0.00 in 0.0 W/m2 CLR
00:43 21.1 °F 6.2 °F 30.48 in Calm   1.0 mph 52 % 0.00 in 0.0 W/m2 CLR
00:48 21.0 °F 6.1 °F 30.48 in Calm     52 % 0.00 in 0.0 W/m2 CLR
00:53 20.7 °F 6.2 °F 30.48 in Calm     53 % 0.00 in 0.0 W/m2 CLR
00:58 20.5 °F 6.5 °F 30.48 in Calm     54 % 0.00 in 0.0 W/m2 CLR
01:03 20.4 °F 6.4 °F 30.48 in Calm     54 % 0.00 in 0.0 W/m2 CLR
01:08 20.7 °F 6.7 °F 30.48 in Calm     54 % 0.00 in 0.0 W/m2 CLR
01:13 20.7 °F 6.2 °F 30.48 in Calm     53 % 0.00 in 0.0 W/m2 CLR
01:18 20.9 °F 6.0 °F 30.48 in Calm     52 % 0.00 in 0.0 W/m2 CLR
01:23 20.6 °F 6.2 °F 30.49 in Calm     53 % 0.00 in 0.0 W/m2 CLR
01:28 20.5 °F 6.1 °F 30.49 in Calm     53 % 0.00 in 0.0 W/m2 CLR
01:33 20.5 °F 6.1 °F 30.48 in Calm     53 % 0.00 in 0.0 W/m2 CLR
01:38 20.5 °F 6.1 °F 30.48 in Calm     53 % 0.00 in 0.0 W/m2 CLR
01:43 20.6 °F 6.2 °F 30.48 in Calm     53 % 0.00 in 0.0 W/m2 CLR
01:48 20.4 °F 6.0 °F 30.49 in Calm     53 % 0.00 in 0.0 W/m2 CLR
01:53 20.5 °F 5.6 °F 30.49 in Calm     52 % 0.00 in 0.0 W/m2 CLR
01:58 20.5 °F 5.6 °F 30.49 in Calm   1.2 mph 52 % 0.00 in 0.0 W/m2 CLR
02:03 20.5 °F 5.6 °F 30.49 in Calm   2.3 mph 52 % 0.00 in 0.0 W/m2 CLR
02:08 20.1 °F 5.3 °F 30.48 in Calm     52 % 0.00 in 0.0 W/m2 CLR
02:13 20.0 °F 5.6 °F 30.48 in NW 0.1 mph 1.2 mph 53 % 0.00 in 0.0 W/m2 CLR
02:18 19.9 °F 5.9 °F 30.48 in NNW 0.5 mph 2.3 mph 54 % 0.00 in 0.0 W/m2 CLR
02:23 19.9 °F 5.9 °F 30.48 in NNW 3.7 mph 5.8 mph 54 % 0.00 in 0.0 W/m2 CLR
02:28 20.0 °F 6.0 °F 30.48 in NNW 2.6 mph 4.6 mph 54 % 0.00 in 0.0 W/m2 CLR
02:33 20.0 °F 6.0 °F 30.48 in NNW 3.7 mph 4.6 mph 54 % 0.00 in 0.0 W/m2 CLR
02:38 20.1 °F 6.1 °F 30.48 in Calm   2.3 mph 54 % 0.00 in 0.0 W/m2 CLR
02:43 20.0 °F 5.6 °F 30.48 in Calm   1.2 mph 53 % 0.00 in 0.0 W/m2 CLR
02:48 20.0 °F 5.6 °F 30.48 in Calm     53 % 0.00 in 0.0 W/m2 CLR
02:53 19.8 °F 5.4 °F 30.49 in Calm   2.3 mph 53 % 0.00 in 0.0 W/m2 CLR
02:58 19.7 °F 5.7 °F 30.49 in Calm     54 % 0.00 in 0.0 W/m2 CLR
03:03 19.5 °F 5.9 °F 30.49 in Calm     55 % 0.00 in 0.0 W/m2 CLR
03:08 19.1 °F 5.6 °F 30.49 in Calm     55 % 0.00 in 0.0 W/m2 CLR
03:13 18.7 °F 5.6 °F 30.49 in Calm     56 % 0.00 in 0.0 W/m2 CLR
03:18 18.9 °F 6.2 °F 30.49 in Calm     57 % 0.00 in 0.0 W/m2 CLR
03:23 18.5 °F 5.8 °F 30.49 in Calm     57 % 0.00 in 0.0 W/m2 CLR
03:28 18.3 °F 6.4 °F 30.49 in Calm     59 % 0.00 in 0.0 W/m2 CLR
03:33 18.2 °F 6.3 °F 30.49 in Calm     59 % 0.00 in 0.0 W/m2 CLR
03:38 18.2 °F 6.3 °F 30.49 in Calm     59 % 0.00 in 0.0 W/m2 CLR
03:44 18.2 °F 6.6 °F 30.49 in Calm     60 % 0.00 in 0.0 W/m2 CLR
03:49 17.8 °F 6.2 °F 30.49 in West 1.6 mph 2.3 mph 60 % 0.00 in 0.0 W/m2 CLR
03:54 17.6 °F 6.4 °F 30.50 in Calm   2.3 mph 61 % 0.00 in 0.0 W/m2 CLR
03:59 17.3 °F 6.5 °F 30.50 in Calm     62 % 0.00 in 0.0 W/m2 CLR
04:04 17.7 °F 6.9 °F 30.49 in Calm     62 % 0.00 in 0.0 W/m2 CLR
04:09 17.7 °F 6.5 °F 30.48 in Calm     61 % 0.00 in 0.0 W/m2 CLR
04:14 17.7 °F 6.5 °F 30.49 in Calm     61 % 0.00 in 0.0 W/m2 CLR
04:19 17.5 °F 6.3 °F 30.49 in Calm     61 % 0.00 in 0.0 W/m2 CLR
04:24 17.5 °F 6.3 °F 30.49 in Calm     61 % 0.00 in 0.0 W/m2 CLR
04:29 17.7 °F 6.5 °F 30.48 in Calm     61 % 0.00 in 0.0 W/m2 CLR
04:34 18.0 °F 6.8 °F 30.48 in Calm     61 % 0.00 in 0.0 W/m2 CLR
04:39 17.9 °F 7.1 °F 30.48 in NW 3.4 mph 3.5 mph 62 % 0.00 in 0.0 W/m2 CLR
04:44 17.7 °F 6.5 °F 30.48 in NW 1.2 mph 3.5 mph 61 % 0.00 in 0.0 W/m2 CLR
04:49 17.5 °F 7.0 °F 30.48 in NW 1.4 mph 5.8 mph 63 % 0.00 in 0.0 W/m2 CLR
04:51 17.7 °F 6.9 °F 30.48 in NW 1.0 mph 3.5 mph 62 % 0.00 in 0.0 W/m2 CLR
04:56 17.9 °F 7.1 °F 30.48 in NW 0.1 mph 3.5 mph 62 % 0.00 in 0.0 W/m2 CLR
05:01 18.1 °F 6.9 °F 30.49 in WSW 0.4 mph 3.0 mph 61 % 0.00 in 0.0 W/m2 CLR
05:06 17.9 °F 6.3 °F 30.48 in Calm   3.5 mph 60 % 0.00 in 0.0 W/m2 CLR
05:11 17.6 °F 6.1 °F 30.48 in Calm     60 % 0.00 in 0.0 W/m2 CLR
05:16 17.6 °F 6.4 °F 30.49 in Calm     61 % 0.00 in 0.0 W/m2 CLR
05:21 17.1 °F 6.3 °F 30.49 in Calm     62 % 0.00 in 0.0 W/m2 CLR
05:26 17.2 °F 6.4 °F 30.49 in Calm     62 % 0.00 in 0.0 W/m2 CLR
05:31 17.2 °F 6.8 °F 30.49 in WSW 0.9 mph 2.3 mph 63 % 0.00 in 0.0 W/m2 CLR
05:36 17.3 °F 7.2 °F 30.49 in Calm     64 % 0.00 in 0.0 W/m2 CLR
05:41 17.4 °F 7.3 °F 30.49 in Calm     64 % 0.00 in 0.0 W/m2 CLR
05:46 17.1 °F 7.0 °F 30.49 in Calm     64 % 0.00 in 0.0 W/m2 CLR
05:51 17.0 °F 6.9 °F 30.50 in Calm     64 % 0.00 in 0.0 W/m2 CLR
05:56 16.9 °F 6.8 °F 30.49 in Calm     64 % 0.00 in 0.0 W/m2 CLR
06:01 16.9 °F 7.2 °F 30.49 in Calm     65 % 0.00 in 0.0 W/m2 CLR
06:06 16.9 °F 7.2 °F 30.50 in Calm     65 % 0.00 in 0.0 W/m2 CLR
06:11 16.6 °F 6.9 °F 30.50 in Calm     65 % 0.00 in 0.0 W/m2 CLR
06:16 16.5 °F 6.8 °F 30.50 in Calm     65 % 0.00 in 0.0 W/m2 CLR
06:21 16.5 °F 6.8 °F 30.50 in Calm     65 % 0.00 in 0.0 W/m2 CLR
06:26 16.3 °F 6.6 °F 30.50 in Calm     65 % 0.00 in 0.0 W/m2 CLR
06:31 16.3 °F 6.9 °F 30.50 in Calm     66 % 0.00 in 0.0 W/m2 CLR
06:36 16.0 °F 6.6 °F 30.51 in WSW 0.8 mph 2.3 mph 66 % 0.00 in 0.0 W/m2 CLR
06:41 15.8 °F 6.8 °F 30.52 in Calm     67 % 0.00 in 0.0 W/m2 CLR
06:46 15.7 °F 6.7 °F 30.52 in Calm     67 % 0.00 in 0.0 W/m2 CLR
06:51 15.6 °F 6.6 °F 30.52 in Calm     67 % 0.00 in 0.0 W/m2 CLR
06:56 15.5 °F 6.5 °F 30.52 in Calm     67 % 0.00 in 0.0 W/m2 CLR
07:01 15.5 °F 6.8 °F 30.52 in Calm     68 % 0.00 in 0.0 W/m2 CLR
07:06 15.5 °F 6.8 °F 30.52 in Calm     68 % 0.00 in 0.0 W/m2 CLR
07:08 15.5 °F 6.8 °F 30.51 in Calm     68 % 0.00 in 0.0 W/m2 CLR
07:13 15.6 °F 6.9 °F 30.52 in Calm     68 % 0.00 in 0.0 W/m2 CLR
07:18 15.2 °F 6.5 °F 30.52 in Calm     68 % 0.00 in 5.0 W/m2 CLR
07:23 15.2 °F 6.5 °F 30.51 in Calm     68 % 0.00 in 7.0 W/m2 CLR
07:28 15.5 °F 7.1 °F 30.52 in Calm     69 % 0.00 in 11.0 W/m2 CLR
07:33 15.9 °F 7.5 °F 30.52 in Calm     69 % 0.00 in 12.0 W/m2 CLR
07:38 16.1 °F 7.4 °F 30.52 in Calm     68 % 0.00 in 16.0 W/m2 CLR
07:43 15.7 °F 7.0 °F 30.52 in Calm     68 % 0.00 in 18.0 W/m2 CLR
07:48 15.7 °F 7.3 °F 30.53 in Calm     69 % 0.00 in 21.0 W/m2 CLR
07:53 16.2 °F 7.8 °F 30.53 in Calm     69 % 0.00 in 28.0 W/m2 CLR
07:58 16.6 °F 8.2 °F 30.54 in Calm     69 % 0.00 in 32.0 W/m2 CLR
08:03 16.4 °F 7.7 °F 30.53 in Calm     68 % 0.00 in 49.0 W/m2 FEW
08:08 16.6 °F 7.9 °F 30.54 in Calm     68 % 0.00 in 47.0 W/m2 SCT
08:13 17.0 °F 8.3 °F 30.54 in Calm     68 % 0.00 in 42.0 W/m2 SCT
08:18 17.4 °F 8.0 °F 30.54 in Calm     66 % 0.00 in 46.0 W/m2 BKN
08:23 17.7 °F 8.3 °F 30.55 in Calm   1.2 mph 66 % 0.00 in 83.0 W/m2 FEW
08:28 18.0 °F 8.2 °F 30.55 in WSW 0.1 mph 2.3 mph 65 % 0.00 in 56.0 W/m2 BKN
08:33 18.2 °F 7.7 °F 30.54 in Calm     63 % 0.00 in 54.0 W/m2 BKN
08:38 18.6 °F 7.7 °F 30.55 in Calm     62 % 0.00 in 84.0 W/m2 SCT
08:43 19.0 °F 7.7 °F 30.54 in Calm     61 % 0.00 in 79.0 W/m2 SCT
08:48 19.3 °F 7.7 °F 30.55 in WSW 0.1 mph 1.2 mph 60 % 0.00 in 93.0 W/m2 SCT
08:53 19.8 °F 7.8 °F 30.54 in WSW 1.3 mph 3.5 mph 59 % 0.00 in 116.0 W/m2 SCT
08:58 20.0 °F 8.0 °F 30.55 in WSW 0.4 mph 2.3 mph 59 % 0.00 in 113.0 W/m2 SCT
09:03 20.3 °F 7.9 °F 30.55 in Calm     58 % 0.00 in 171.0 W/m2 FEW
09:08 20.2 °F 7.8 °F 30.55 in Calm     58 % 0.00 in 114.0 W/m2 SCT
09:13 20.4 °F 8.0 °F 30.56 in WSW 0.3 mph 1.2 mph 58 % 0.00 in 120.0 W/m2 BKN
09:18 20.5 °F 8.0 °F 30.56 in Calm     58 % 0.00 in 200.0 W/m2 FEW
09:23 20.7 °F 7.9 °F 30.56 in WSW 0.7 mph 3.5 mph 57 % 0.00 in 339.0 W/m2 CLR
09:28 21.0 °F 7.7 °F 30.57 in WSW 0.2 mph 1.0 mph 56 % 0.00 in 404.0 W/m2 CLR
09:33 21.4 °F 8.5 °F 30.57 in Calm   2.3 mph 57 % 0.00 in 360.0 W/m2 CLR
09:38 22.4 °F 9.1 °F 30.57 in West 1.8 mph 3.5 mph 56 % 0.00 in 431.0 W/m2 CLR
09:43 22.9 °F 9.5 °F 30.56 in WNW 0.1 mph   56 % 0.00 in 483.0 W/m2 CLR
09:48 22.7 °F 8.5 °F 30.57 in Calm     54 % 0.00 in 429.0 W/m2 CLR
09:53 22.5 °F 8.3 °F 30.57 in WSW 0.2 mph 3.5 mph 54 % 0.00 in 346.0 W/m2 CLR
09:58 21.9 °F 8.2 °F 30.57 in Calm     55 % 0.00 in 258.0 W/m2 FEW
10:03 22.4 °F 8.7 °F 30.57 in Calm     55 % 0.00 in 297.0 W/m2 FEW
10:08 22.6 °F 8.8 °F 30.57 in SSW 1.6 mph 3.5 mph 55 % 0.00 in 371.0 W/m2 CLR
10:13 22.7 °F 8.5 °F 30.57 in SSW 3.2 mph 4.6 mph 54 % 0.00 in 348.0 W/m2 FEW
10:18 22.4 °F 8.2 °F 30.57 in Calm   1.2 mph 54 % 0.00 in 425.0 W/m2 CLR
10:23 23.0 °F 8.8 °F 30.55 in Calm     54 % 0.00 in 378.0 W/m2 CLR
10:28 22.7 °F 7.7 °F 30.56 in Calm     52 % 0.00 in 427.0 W/m2 CLR
10:33 22.7 °F 8.1 °F 30.56 in SW 0.5 mph   53 % 0.00 in 547.0 W/m2 CLR
10:38 22.9 °F 7.9 °F 30.56 in Calm   1.2 mph 52 % 0.00 in 490.0 W/m2 CLR
10:43 23.1 °F 7.6 °F 30.55 in Calm     51 % 0.00 in 480.0 W/m2 CLR
10:48 23.8 °F 8.7 °F 30.55 in West 1.8 mph 3.5 mph 52 % 0.00 in 446.0 W/m2 CLR
10:53 23.4 °F 8.3 °F 30.54 in Calm     52 % 0.00 in 573.0 W/m2 CLR
10:58 23.6 °F 8.5 °F 30.54 in Calm     52 % 0.00 in 526.0 W/m2 CLR
11:03 24.2 °F 9.5 °F 30.54 in West 0.3 mph 2.3 mph 53 % 0.00 in 543.0 W/m2 CLR
11:08 24.3 °F 8.3 °F 30.54 in Calm     50 % 0.00 in 533.0 W/m2 CLR
11:13 24.4 °F 8.8 °F 30.53 in Calm     51 % 0.00 in 684.0 W/m2 CLR
11:18 24.8 °F 9.2 °F 30.53 in WNW 0.9 mph 2.3 mph 51 % 0.00 in 649.0 W/m2 CLR
11:23 25.9 °F 9.3 °F 30.53 in Calm     49 % 0.00 in 754.0 W/m2 CLR
11:28 25.2 °F 8.2 °F 30.52 in Calm     48 % 0.00 in 666.0 W/m2 CLR
11:33 24.8 °F 9.2 °F 30.52 in NNE 0.1 mph   51 % 0.00 in 624.0 W/m2 CLR
11:38 24.4 °F 8.4 °F 30.51 in Calm     50 % 0.00 in 564.0 W/m2 CLR
11:44 24.8 °F 9.2 °F 30.51 in NE 1.5 mph 3.5 mph 51 % 0.00 in 489.0 W/m2 CLR
11:49 24.7 °F 9.1 °F 30.50 in NE 0.6 mph 2.3 mph 51 % 0.00 in 643.0 W/m2 CLR
11:54 25.3 °F 9.7 °F 30.50 in NNE 1.4 mph 3.5 mph 51 % 0.00 in 689.0 W/m2 CLR
11:59 25.4 °F 9.3 °F 30.49 in Calm   3.5 mph 50 % 0.00 in 622.0 W/m2 CLR
12:04 25.5 °F 8.5 °F 30.49 in NNE 0.3 mph 4.6 mph 48 % 0.00 in 552.0 W/m2 CLR
12:09 25.3 °F 7.9 °F 30.49 in Calm     47 % 0.00 in 578.0 W/m2 CLR
12:14 25.5 °F 8.0 °F 30.49 in Calm     47 % 0.00 in 575.0 W/m2 CLR
12:19 26.3 °F 9.2 °F 30.49 in NNE 0.8 mph 5.0 mph 48 % 0.00 in 522.0 W/m2 CLR
12:24 26.3 °F 9.2 °F 30.50 in NNW 0.1 mph 3.5 mph 48 % 0.00 in 775.0 W/m2 CLR
12:29 27.2 °F 10.5 °F 30.49 in Calm   1.2 mph 49 % 0.00 in 765.0 W/m2 CLR
12:34 26.9 °F 8.8 °F 30.49 in WSW 0.2 mph 1.2 mph 46 % 0.00 in 689.0 W/m2 CLR
12:39 27.6 °F 10.0 °F 30.49 in NE 0.9 mph 6.0 mph 47 % 0.00 in 673.0 W/m2 CLR
12:44 27.2 °F 9.6 °F 30.49 in NW 1.1 mph 5.0 mph 47 % 0.00 in 592.0 W/m2 CLR
12:49 27.0 °F 8.5 °F 30.50 in Calm     45 % 0.00 in 642.0 W/m2 CLR
12:54 27.7 °F 9.6 °F 30.49 in Calm     46 % 0.00 in 673.0 W/m2 CLR
12:59 27.8 °F 9.7 °F 30.49 in NE 0.2 mph 2.3 mph 46 % 0.00 in 759.0 W/m2 CLR
13:04 28.7 °F 10.0 °F 30.49 in NNE 3.1 mph 5.8 mph 45 % 0.00 in 698.0 W/m2 CLR
13:09 28.1 °F 9.0 °F 30.49 in Calm   1.2 mph 44 % 0.00 in 677.0 W/m2 CLR
13:14 28.7 °F 10.0 °F 30.49 in North 1.3 mph 4.0 mph 45 % 0.00 in 761.0 W/m2 CLR
13:19 28.9 °F 10.2 °F 30.48 in North 0.5 mph 3.5 mph 45 % 0.00 in 837.0 W/m2 CLR
13:24 29.2 °F 11.0 °F 30.48 in Calm     46 % 0.00 in 775.0 W/m2 CLR
13:29 29.7 °F 10.9 °F 30.47 in Calm     45 % 0.00 in 744.0 W/m2 CLR
13:34 29.8 °F 11.0 °F 30.46 in Calm     45 % 0.00 in 802.0 W/m2 CLR
13:39 30.0 °F 10.7 °F 30.46 in ENE 0.8 mph 5.8 mph 44 % 0.00 in 754.0 W/m2 CLR
13:40 30.0 °F 10.7 °F 30.46 in ENE 1.0 mph 6.0 mph 44 % 0.00 in 770.0 W/m2 CLR
13:45 29.6 °F 9.3 °F 30.45 in South 1.3 mph 3.5 mph 42 % 0.00 in 800.0 W/m2 CLR
13:50 29.9 °F 10.6 °F 30.45 in NNE 1.1 mph 4.6 mph 44 % 0.00 in 677.0 W/m2 CLR
13:55 30.5 °F 10.1 °F 30.45 in Calm   3.5 mph 42 % 0.00 in 766.0 W/m2 CLR
14:00 30.9 °F 11.0 °F 30.44 in Calm     43 % 0.01 in 816.0 W/m2 RA
14:05 31.2 °F 7.9 °F 30.44 in South 5.6 mph 8.1 mph 37 % 0.01 in 775.0 W/m2 RA
14:10 31.0 °F 7.1 °F 30.44 in East 0.8 mph 3.5 mph 36 % 0.01 in 780.0 W/m2 CLR
14:15 31.3 °F 8.6 °F 30.43 in NNE 0.2 mph 1.0 mph 38 % 0.01 in 788.0 W/m2 CLR
14:20 31.7 °F 7.7 °F 30.43 in ESE 0.1 mph 1.2 mph 36 % 0.01 in 768.0 W/m2 CLR
14:25 31.9 °F 6.7 °F 30.43 in South 0.3 mph 1.2 mph 34 % 0.01 in 645.0 W/m2 CLR
14:30 31.8 °F 9.6 °F 30.42 in Calm     39 % 0.01 in 780.0 W/m2 CLR
14:35 32.2 °F 9.4 °F 30.42 in Calm     38 % 0.01 in 812.0 W/m2 CLR
14:40 32.3 °F 7.7 °F 30.42 in SSE 0.6 mph 2.3 mph 35 % 0.01 in 749.0 W/m2 CLR
14:45 32.4 °F 9.6 °F 30.41 in SSE 2.0 mph 5.0 mph 38 % 0.01 in 636.0 W/m2 CLR
14:50 32.8 °F 9.3 °F 30.41 in SSW 1.1 mph 3.5 mph 37 % 0.01 in 529.0 W/m2 CLR
14:55 32.3 °F 8.9 °F 30.41 in SSW 2.7 mph 4.6 mph 37 % 0.01 in 645.0 W/m2 CLR
15:00 32.8 °F 9.9 °F 30.40 in Calm     38 % 0.00 in 698.0 W/m2 CLR
15:05 33.3 °F 11.5 °F 30.40 in SSE 0.3 mph   40 % 0.00 in 693.0 W/m2 CLR
15:10 33.2 °F 10.3 °F 30.39 in East 2.0 mph 5.8 mph 38 % 0.00 in 666.0 W/m2 CLR
15:15 33.5 °F 11.2 °F 30.39 in South 5.1 mph 8.1 mph 39 % 0.00 in 608.0 W/m2 CLR
15:20 33.4 °F 10.5 °F 30.38 in SE 0.3 mph 3.0 mph 38 % 0.00 in 671.0 W/m2 CLR
15:25 34.4 °F 12.0 °F 30.38 in SSE 0.3 mph 4.6 mph 39 % 0.00 in 573.0 W/m2 CLR
15:30 33.9 °F 10.3 °F 30.38 in SE 1.1 mph 3.5 mph 37 % 0.00 in 223.0 W/m2 SCT
15:35 33.2 °F 8.5 °F 30.38 in South 0.2 mph 4.6 mph 35 % 0.00 in 529.0 W/m2 CLR
15:40 34.1 °F 11.1 °F 30.38 in Calm     38 % 0.00 in 800.0 W/m2 CLR
15:45 34.1 °F 9.9 °F 30.37 in SE 1.1 mph 2.3 mph 36 % 0.00 in 745.0 W/m2 CLR
15:50 34.9 °F 11.2 °F 30.37 in ESE 1.7 mph 3.5 mph 37 % 0.00 in 737.0 W/m2 CLR
15:55 34.7 °F 10.4 °F 30.37 in South 4.4 mph 9.2 mph 36 % 0.00 in 670.0 W/m2 CLR
16:00 34.9 °F 11.8 °F 30.37 in East 2.7 mph 5.8 mph 38 % 0.00 in 550.0 W/m2 CLR
16:05 34.9 °F 11.8 °F 30.36 in Calm     38 % 0.00 in 533.0 W/m2 CLR
16:10 35.1 °F 12.0 °F 30.36 in South 2.5 mph 4.6 mph 38 % 0.00 in 591.0 W/m2 CLR
16:15 34.6 °F 11.0 °F 30.35 in ENE 0.5 mph 3.5 mph 37 % 0.00 in 316.0 W/m2 SCT
16:20 34.2 °F 10.6 °F 30.35 in Calm   2.3 mph 37 % 0.00 in 297.0 W/m2 SCT
16:25 34.6 °F 11.6 °F 30.35 in East 1.7 mph 3.5 mph 38 % 0.00 in 529.0 W/m2 CLR
16:30 34.6 °F 11.6 °F 30.34 in NE 2.3 mph 5.0 mph 38 % 0.00 in 325.0 W/m2 CLR
16:35 34.8 °F 11.7 °F 30.34 in East 2.0 mph 3.5 mph 38 % 0.00 in 251.0 W/m2 SCT
16:40 34.7 °F 12.8 °F 30.34 in NE 3.1 mph 3.5 mph 40 % 0.00 in 413.0 W/m2 CLR
16:45 35.0 °F 11.3 °F 30.33 in Calm   1.2 mph 37 % 0.00 in 211.0 W/m2 SCT
16:50 34.6 °F 12.1 °F 30.33 in Calm     39 % 0.00 in 415.0 W/m2 CLR
16:55 34.6 °F 12.1 °F 30.33 in ESE 1.6 mph   39 % 0.00 in 221.0 W/m2 FEW
17:00 34.6 °F 12.7 °F 30.33 in East 0.5 mph 3.5 mph 40 % 0.00 in 301.0 W/m2 CLR
17:05 34.9 °F 13.0 °F 30.33 in NE 0.5 mph 3.5 mph 40 % 0.00 in 283.0 W/m2 CLR
17:11 35.1 °F 13.2 °F 30.33 in SE 1.3 mph 3.5 mph 40 % 0.00 in 404.0 W/m2 CLR
17:16 35.5 °F 13.0 °F 30.33 in SSE 0.6 mph 3.5 mph 39 % 0.00 in 253.0 W/m2 CLR
17:21 35.8 °F 13.2 °F 30.33 in SSE 1.2 mph 2.3 mph 39 % 0.00 in 262.0 W/m2 CLR
17:26 35.5 °F 11.8 °F 30.33 in South 2.2 mph 5.8 mph 37 % 0.00 in 243.0 W/m2 CLR
17:31 35.6 °F 13.0 °F 30.33 in East 1.2 mph 2.3 mph 39 % 0.00 in 274.0 W/m2 CLR
17:36 35.3 °F 12.8 °F 30.33 in SE 0.9 mph 3.5 mph 39 % 0.00 in 186.0 W/m2 CLR
17:41 35.4 °F 12.9 °F 30.33 in Calm   1.0 mph 39 % 0.00 in 204.0 W/m2 CLR
17:46 35.3 °F 12.8 °F 30.33 in East 0.6 mph 1.2 mph 39 % 0.00 in 134.0 W/m2 CLR
17:51 35.1 °F 12.6 °F 30.33 in ESE 2.9 mph 4.0 mph 39 % 0.00 in 93.0 W/m2 SCT
17:56 34.9 °F 11.8 °F 30.33 in ESE 0.1 mph 2.0 mph 38 % 0.00 in 95.0 W/m2 FEW
18:01 35.0 °F 11.9 °F 30.33 in ESE 1.3 mph 3.5 mph 38 % 0.00 in 109.0 W/m2 FEW
18:06 35.3 °F 13.3 °F 30.33 in SSE 0.1 mph 1.2 mph 40 % 0.00 in 100.0 W/m2 FEW
18:11 35.3 °F 12.8 °F 30.34 in SE 0.8 mph 3.5 mph 39 % 0.00 in 70.0 W/m2 SCT
18:16 34.9 °F 12.4 °F 30.33 in Calm     39 % 0.00 in 47.0 W/m2 BKN
18:21 34.6 °F 12.7 °F 30.33 in ESE 0.5 mph 2.3 mph 40 % 0.00 in 58.0 W/m2 SCT
18:26 34.6 °F 13.3 °F 30.33 in Calm     41 % 0.00 in 42.0 W/m2 SCT
18:36 34.5 °F 13.2 °F 30.33 in East 1.8 mph 3.5 mph 41 % 0.00 in 42.0 W/m2 FEW
18:41 34.4 °F 13.1 °F 30.33 in Calm     41 % 0.00 in 33.0 W/m2 FEW
18:46 34.4 °F 13.1 °F 30.33 in Calm     41 % 0.00 in 25.0 W/m2 FEW
18:51 34.4 °F 12.5 °F 30.33 in Calm     40 % 0.00 in 18.0 W/m2 FEW
18:56 34.2 °F 12.9 °F 30.33 in Calm     41 % 0.00 in 12.0 W/m2 SCT
19:01 34.2 °F 12.4 °F 30.33 in East 0.5 mph 3.5 mph 40 % 0.00 in 7.0 W/m2 FEW
19:06 34.2 °F 12.9 °F 30.32 in Calm     41 % 0.00 in 0.0 W/m2 SCT
19:11 34.0 °F 12.7 °F 30.33 in Calm     41 % 0.00 in 0.0 W/m2 SCT
19:16 33.9 °F 12.6 °F 30.33 in Calm     41 % 0.00 in 0.0 W/m2 SCT
19:21 33.9 °F 12.6 °F 30.32 in Calm     41 % 0.00 in 0.0 W/m2 SCT
19:26 33.9 °F 12.6 °F 30.32 in Calm     41 % 0.00 in 0.0 W/m2 SCT
19:31 33.9 °F 12.6 °F 30.32 in Calm     41 % 0.00 in 0.0 W/m2 SCT
19:36 33.9 °F 12.6 °F 30.32 in Calm     41 % 0.00 in 0.0 W/m2 SCT
19:41 33.8 °F 12.6 °F 30.32 in East 0.1 mph 1.2 mph 41 % 0.00 in 0.0 W/m2 SCT
19:46 33.8 °F 13.1 °F 30.31 in East 0.4 mph   42 % 0.00 in 0.0 W/m2 SCT
19:51 33.8 °F 13.1 °F 30.32 in Calm     42 % 0.00 in 0.0 W/m2 SCT
19:56 33.7 °F 13.0 °F 30.32 in Calm   3.5 mph 42 % 0.00 in 0.0 W/m2 SCT
20:01 33.7 °F 13.5 °F 30.32 in Calm   1.2 mph 43 % 0.00 in 0.0 W/m2 SCT
20:06 33.6 °F 13.5 °F 30.31 in Calm     43 % 0.00 in 0.0 W/m2 SCT
20:11 33.5 °F 14.9 °F 30.31 in Calm     46 % 0.00 in 0.0 W/m2 SCT
20:16 33.4 °F 14.3 °F 30.32 in Calm     45 % 0.00 in 0.0 W/m2 SCT
20:21 33.3 °F 14.7 °F 30.32 in Calm     46 % 0.00 in 0.0 W/m2 SCT
20:26 33.3 °F 13.7 °F 30.32 in Calm     44 % 0.00 in 0.0 W/m2 SCT
20:27 33.3 °F 14.2 °F 30.32 in Calm     45 % 0.00 in 0.0 W/m2 SCT
20:32 33.2 °F 14.6 °F 30.32 in Calm     46 % 0.00 in 0.0 W/m2 SCT
20:37 33.2 °F 15.6 °F 30.32 in Calm     48 % 0.00 in 0.0 W/m2 SCT
20:42 33.3 °F 15.2 °F 30.31 in Calm     47 % 0.00 in 0.0 W/m2 SCT
20:47 33.4 °F 16.3 °F 30.31 in Calm     49 % 0.00 in 0.0 W/m2 SCT
20:52 33.4 °F 15.8 °F 30.31 in SE 0.1 mph 1.2 mph 48 % 0.00 in 0.0 W/m2 SCT
20:57 33.3 °F 15.2 °F 30.31 in East 0.1 mph 1.0 mph 47 % 0.00 in 0.0 W/m2 SCT
21:02 33.1 °F 15.5 °F 30.30 in ESE 2.2 mph 3.5 mph 48 % 0.00 in 0.0 W/m2 SCT
21:07 33.0 °F 16.4 °F 30.31 in Calm     50 % 0.00 in 0.0 W/m2 SCT
21:12 32.8 °F 15.7 °F 30.30 in Calm     49 % 0.00 in 0.0 W/m2 SCT
21:17 32.7 °F 16.1 °F 30.30 in ESE 0.1 mph   50 % 0.00 in 0.0 W/m2 SCT
21:20 32.7 °F 16.1 °F 30.29 in ESE 1.1 mph 3.5 mph 50 % 0.00 in 0.0 W/m2 SCT
21:25 32.6 °F 18.2 °F 30.30 in SE 2.2 mph 4.0 mph 55 % 0.00 in 0.0 W/m2 SCT
21:30 32.3 °F 18.3 °F 30.30 in ESE 0.6 mph 3.5 mph 56 % 0.00 in 0.0 W/m2 SCT
21:35 32.3 °F 18.3 °F 30.30 in Calm     56 % 0.00 in 0.0 W/m2 SCT
21:40 32.3 °F 18.3 °F 30.28 in Calm     56 % 0.00 in 0.0 W/m2 SCT
21:45 32.3 °F 18.8 °F 30.28 in ESE 1.6 mph 5.0 mph 57 % 0.00 in 0.0 W/m2 SCT
21:50 32.3 °F 19.6 °F 30.29 in SE 5.9 mph 10.4 mph 59 % 0.00 in 0.0 W/m2 SCT
21:55 31.8 °F 20.6 °F 30.29 in ESE 3.1 mph 5.8 mph 63 % 0.00 in 0.0 W/m2 SCT
22:00 31.3 °F 21.3 °F 30.29 in SSE 3.7 mph 8.1 mph 66 % 0.00 in 0.0 W/m2 SCT
22:05 30.8 °F 21.8 °F 30.29 in SE 3.3 mph 5.8 mph 69 % 0.00 in 0.0 W/m2 SCT
22:10 30.3 °F 22.0 °F 30.29 in ESE 2.2 mph 4.0 mph 71 % 0.00 in 0.0 W/m2 SCT
22:15 29.9 °F 22.3 °F 30.29 in Calm     73 % 0.00 in 0.0 W/m2 SCT
22:20 29.4 °F 22.8 °F 30.29 in East 2.3 mph 4.0 mph 76 % 0.00 in 0.0 W/m2 SCT
22:25 29.0 °F 23.0 °F 30.28 in East 0.2 mph 3.5 mph 78 % 0.00 in 0.0 W/m2 SCT
22:30 28.6 °F 23.2 °F 30.28 in ESE 0.7 mph 3.0 mph 80 % 0.00 in 0.0 W/m2 SCT
22:35 28.3 °F 23.2 °F 30.27 in Calm     81 % 0.00 in 0.0 W/m2 SCT
22:40 28.0 °F 23.5 °F 30.27 in Calm     83 % 0.00 in 0.0 W/m2 SCT
22:45 27.8 °F 23.6 °F 30.27 in East 0.4 mph 2.3 mph 84 % 0.00 in 0.0 W/m2 SCT
22:50 27.7 °F 23.5 °F 30.27 in ENE 0.7 mph 2.3 mph 84 % 0.00 in 0.0 W/m2 SCT
22:55 27.6 °F 23.7 °F 30.27 in Calm     85 % 0.00 in 0.0 W/m2 SCT
23:00 27.6 °F 23.7 °F 30.27 in East 0.4 mph 2.3 mph 85 % 0.00 in 0.0 W/m2 SCT
23:05 27.4 °F 23.8 °F 30.27 in Calm     86 % 0.00 in 0.0 W/m2 SCT
23:10 27.4 °F 23.8 °F 30.27 in NE 2.5 mph 3.5 mph 86 % 0.00 in 0.0 W/m2 SCT
23:15 27.3 °F 23.7 °F 30.26 in NE 0.7 mph 2.3 mph 86 % 0.00 in 0.0 W/m2 SCT
23:20 27.2 °F 23.8 °F 30.27 in NE 0.4 mph 2.3 mph 87 % 0.00 in 0.0 W/m2 SCT
23:25 27.1 °F 23.7 °F 30.26 in NE 1.1 mph 3.5 mph 87 % 0.00 in 0.0 W/m2 SCT
23:30 27.0 °F 23.6 °F 30.26 in ENE 1.6 mph 2.3 mph 87 % 0.00 in 0.0 W/m2 SCT
23:35 26.8 °F 23.4 °F 30.26 in North 2.5 mph 7.0 mph 87 % 0.00 in 0.0 W/m2 SCT
23:40 26.5 °F 23.2 °F 30.25 in NE 2.4 mph 6.0 mph 87 % 0.00 in 0.0 W/m2 SCT
23:45 26.3 °F 23.2 °F 30.25 in ENE 0.6 mph 2.3 mph 88 % 0.00 in 0.0 W/m2 SCT
23:50 26.3 °F 23.2 °F 30.24 in NE 2.1 mph 8.1 mph 88 % 0.00 in 0.0 W/m2 SCT
23:55 26.2 °F 23.1 °F 30.24 in NE 1.4 mph 4.6 mph 88 % 0.00 in 0.0 W/m2 SCT
Air Products Campus Weather
Compliments of Weather Underground - 3.5 mb